Regional Weather Roundup
Issued by NWS

Home | Current Version | Previous Version | Graphics & Text | Print | Product List | Glossary On
Versions: 1 2 3 4 5 6 7 8 9 10 11 12 13 14 15 16 17 18 19 20 21 22 23 24 25 26 27 28 29 30 31 32 33 34 35 36 37 38 39 40 41 42 43 44 45 46 47 48 49 50
000
ASUS45 KTFX 302219
RWRMT
MONTANA HOURLY WEATHER ROUNDUP
NATIONAL WEATHER SERVICE GREAT FALLS MT
319 PM MST FRI JAN 30 2015

NOTE: "FAIR" INDICATES FEW OR NO CLOUDS BELOW 12000 FEET WITH NO
SIGNIFICANT WEATHER AND/OR OBSTRUCTIONS TO VISIBILITY.

* THESE STATIONS ARE NOT UNDER NWS QUALITY CONTROL. THEY DO NOT
   REPORT WEATHER SUCH AS PRECIPITATION OR FOG.

MTZ001>007-043-302300-
WEST OF THE DIVIDE
CITY           SKY/WX    TMP DP  RH WIND       PRES   REMARKS
KALISPELL      FOG       23  21  92 SE6       30.27F VSB 1/2  WCI  16
MISSOULA       FOG       34  25  70 SW3       30.25F
BUTTE          SUNNY     37  18  46 W3        30.17F
MULLAN PASS    SUNNY     34  19  54 NW3       30.18F
* ANACONDA     SUNNY     37  19  48 N6         N/A   WCI  32
* ESSEX        N/A       37  21  52 NW4        N/A
* EUREKA APT   SUNNY     30  25  82 CALM      30.29F
* HAMILTON APT SUNNY     39  23  53 NE5       30.22F WCI  35
* LIBBY APT    SUNNY     30  27  89 CALM      30.31F
* LINCOLN      N/A       41  20  43 S7         N/A
* LOOKOUT PASS N/A       40  23  51 N5         N/A   WCI  36
* POLSON       N/A       28  27  96 S2         N/A
* RONAN APT    SUNNY     27  25  92 N/A        N/A
* SEELEY LAKE  N/A       43  21  42 SW1        N/A
* THOMP F APT  SUNNY     37  13  37 NW5G18     N/A   WCI  33
$$

MTZ008-052>055-302300-
SOUTHWEST MONTANA
CITY           SKY/WX    TMP DP  RH WIND       PRES   REMARKS
BOZEMAN        SUNNY     43  21  42 CALM      30.17F
DILLON         SUNNY     43  16  34 CALM      30.15F
* W YELLOWSTON CLOUDY    32  18  56 NW2        N/A
* THREE FORKS  SUNNY     45  28  51 N/A        N/A
* BOULDER HILL N/A       39  18  43 S4         N/A
* MONIDA PASS  N/A       19  18  96 W3         N/A
* RAYNOLDS PAS N/A       30  30 100 N2         N/A
* WHITEHALL    N/A       46  21  37 SW6G13     N/A
* WISE RIVER   N/A       33  17  52 W5         N/A   WCI  28
$$

MTZ009>010-012-014-046-048-049-054-302300-
EAST SLOPES AND CENTRAL MONTANA
CITY           SKY/WX    TMP DP  RH WIND       PRES   REMARKS
CUT BANK       PTCLDY    48  16  28 S8        30.09F
GREAT FALLS    SUNNY     50  16  26 SW7       30.12F
HELENA         SUNNY     43  27  53 NE5       30.17F
MALMSTROM AFB  SUNNY     48  16  28 W8        30.13F
* CONRAD       PTCLDY    48  21  34 E5         N/A
* DEARBORN     N/A       47  19  33 S9         N/A
* EAST GLACIER N/A       41  16  36 W21G29     N/A
* MONARCH      N/A       46  10  23 NW6        N/A
* PENDROY      N/A       50   3  14 S4G11      N/A
* ROGERS PASS  N/A       35  15  44 SE3G12     N/A
* SWEET GRASS  N/A       47  18  31 S3         N/A
* WHITE SULPH  N/A       46  18  33 W3         N/A
$$

MTZ011-013-016-021-035-040-045-047-050-051-302300-
NORTH CENTRAL MONTANA
CITY           SKY/WX    TMP DP  RH WIND       PRES   REMARKS
HAVRE          PTCLDY    45  19  35 CALM      30.14F
LEWISTOWN      SUNNY     46  10  23 CALM      30.13F
* N BAR RANCH  SUNNY     46   9  22 S10       30.15F
* CHINOOK      PTCLDY    43  25  49 CALM      30.16F
* CHESTER      N/A       44  26  49 S3         N/A
* DENTON       N/A       51  13  22 SE1        N/A
* GEYSER       N/A       51  10  19 NE1        N/A
* JUDITH GAP   N/A       49   7  18 S11        N/A
* LOMA         N/A       49  20  32 W2         N/A
$$

MTZ017>020-022>027-061-062-302300-
NORTHEAST MONTANA
CITY           SKY/WX    TMP DP  RH WIND       PRES   REMARKS
GLASGOW        PTCLDY    39  30  70 N3        30.18F
GLENDIVE       SUNNY     45  25  45 N8        30.19S
JORDAN         SUNNY     45  27  49 CALM      30.17F
SIDNEY         PTCLDY    41  27  58 NW6       30.20F
WOLF POINT     PTCLDY    41  30  65 W6        30.20S
* BEAVER HILL  N/A       43  25  49 NW9        N/A
* CIRCLE       N/A       44  33  65 N/A        N/A
* LINDSAY DVD  N/A       43  26  51 N4G9       N/A
* NAVAJO       N/A       38  27  65 VRB13      N/A   WCI  30
* PLENTYWOOD A SUNNY     36  28  73 NW12      30.17S WCI  28
* POPLAR APT   PTCLDY    41  30  65 N/A       30.19F
* SACO         N/A       39  29  67 VRB2       N/A
$$

MTZ028>042-056>058-302300-
SOUTHCENTRAL AND SOUTHEAST MONTANA
CITY           SKY/WX    TMP DP  RH WIND       PRES   REMARKS
BAKER          SUNNY     45  28  51 NW9       30.17S
BILLINGS       SUNNY     50  18  28 SW3       30.15F
LIVINGSTON     SUNNY     46  16  30 W8        30.13F
MILES CITY     SUNNY     46  28  50 CALM      30.18F
* BIG TIMBER A SUNNY     48  14  25 CALM      30.15F
* FORSYTH APT  SUNNY     46  25  44 SW6       30.18S
* LAUREL APT   SUNNY     52  18  26 S5         N/A
* ROUNDUP APT  SUNNY     50  10  20 NE8        N/A
* ALZADA       N/A       47  24  40 W4         N/A
* HYSHAM       N/A       47  16  29 VRB5       N/A
* LAME DEER    N/A       44  18  35 NW4        N/A
* REED POINT   N/A       47  17  30 SE1        N/A
* ROSCOE HILL  N/A       43  10  26 NE6        N/A
$$

REGIONAL REPORTS...DAKOTAS
CITY           SKY/WX    TMP DP  RH WIND       PRES   REMARKS
WILLISTON      PTCLDY    41  27  58 NW9       30.18S
DICKINSON      SUNNY     46  25  44 NW15      30.13R
BEACH          SUNNY     41  27  58 N8        30.17S
CROSBY         PTSUNNY   32  28  85 N15       30.19R WCI  22
TIOGA          SUNNY     34  30  85 NW13      30.18S WCI  25
WATFORD CITY   SUNNY     37  27  67 N7        30.15F WCI  32
BISMARCK       SUNNY     46  27  48 NW14G22   30.13R
GRAND FORKS    PTCLDY    36  23  59 W10       30.10F WCI  29
FARGO          SUNNY     34  25  70 S15       30.13F WCI  24
BUFFALO SD     SUNNY     48  25  41 NW14      30.08S
RAPID CITY     PTCLDY    50  27  41 N17       30.12F
$$

REGIONAL REPORTS...WYOMING/IDAHO/WASHINGTON
CITY           SKY/WX    TMP DP  RH WIND       PRES   REMARKS
GILLETTE       CLOUDY    45  25  45 N9        30.15F
SHERIDAN       CLOUDY    48  18  30 NE6       30.16F
CODY           CLOUDY    43  25  49 NE7       30.14F
YELLOWSTONE LA CLOUDY    18  10  71 CALM      30.16F
SALMON         CLOUDY    30  21  69 N5        30.27F WCI  25
MULLAN PASS    SUNNY     34  19  54 NW3       30.18S
SAND POINT     CLOUDY    32  32 100 SE3       30.30F
SPOKANE        FOG       30  28  92 CALM      30.30F VSB M1/4
$$

REGIONAL REPORTS...ALBERTA
CITY           SKY/WX    TMP DP  RH WIND       PRES   REMARKS
CALGARY        PTSUNNY   36  21  54 SE10G17   30.08F WCI  29
LETHBRIDGE     SUNNY     37  27  67 NE10      30.12F WCI  30
MEDICINE HAT   FOG       30  30 100 N6        30.16F VSB 3    WCI  24
EDMONTON       LGT SNOW  18  16  92 N13       30.26S VSB 3/4  WCI   5
WATERTON GATE  N/A       45  16  31 SW21G32    N/A
CARDSTON       N/A       45  25  45 N5         N/A
MILK RIVER     N/A       45  23  42 SE5        N/A
$$

REGIONAL REPORTS...SASKATCHEWAN
CITY           SKY/WX    TMP DP  RH WIND       PRES   REMARKS
SWIFT CURRENT  PTSUNNY   30  30 100 NW5       30.18F WCI  25
REGINA         CLOUDY    21  18  88 N10       30.23R WCI  10
VAL MARIE      N/A       39  28  65 SE2        N/A
ASSINIBOIA     N/A       28  25  89 N12        N/A   WCI  18
CORONACH       N/A       37  27  67 N10        N/A   WCI  30

$$




USA.gov is the U.S. government's official web portal to all federal, state and local government web resources and services.